Wind_Speed
18 14 12 16 20 21 17 14 9 6 2 2 2 10 9 6 6 5 7 11 14 13 4 6 8 9 7 8 9 6 7 8 8 7 6 6 5 4 5 4 5 3 1 2
18 12 14 20 25 22 21 20 15 9 6 5 7 10 8 4 4 1 6 7 10 11 3 4 6 6 5 3 6 4 5 8 8 7 7 7 6 6 5 7 7 7 6 4
17 15 17 21 23 23 22 22 20 13 12 10 8 10 9 8 6 6 3 9 9 9 6 3 3 4 4 2 0 1 1 4 7 7 5 6 6 6 8 11 12 11 9 7
21 19 20 21 21 23 23 23 22 16 14 13 13 14 15 17 14 10 5 7 7 12 8 2 1 3 4 2 2 2 3 3 3 6 7 8 7 8 11 14 15 13 12 9
21 19 23 24 21 23 22 23 26 17 15 16 15 13 10 16 13 10 9 8 3 8 7 5 3 1 2 2 2 2 1 6 8 8 9 9 10 11 12 15 15 14 13 11
25 24 24 21 20 20 18 20 23 18 18 19 17 14 3 9 7 3 3 4 7 7 10 5 3 3 4 7 4 1 2 7 10 12 13 13 13 13 14 15 15 14 16 15
23 22 21 19 19 17 15 14 21 21 23 20 17 20 7 10 6 4 5 5 8 10 12 13 10 7 6 9 9 7 3 4 9 10 11 15 14 13 14 12 13 13 17 19
20 20 19 17 15 12 15 14 16 20 21 20 22 22 8 12 8 3 7 9 12 17 17 19 18 17 13 13 13 9 8 6 7 8 10 8 7 5 9 9 10 16 20 22
18 18 19 21 19 16 12 11 12 18 17 17 17 16 7 7 12 13 11 14 18 21 21 16 9 19 18 17 16 12 10 9 7 6 7 6 3 4 5 5 10 16 17 17
18 21 21 19 18 17 14 11 16 13 13 13 14 9 7 6 10 9 7 11 14 17 18 9 11 11 15 18 18 14 14 13 10 10 7 1 2 2 3 6 9 21 24 15
21 21 19 16 13 11 13 16 14 13 11 10 9 10 11 8 8 7 10 14 17 19 13 5 8 7 8 14 15 16 18 15 15 12 12 9 8 9 8 12 6 17 21 26
20 19 19 17 17 16 15 14 11 8 8 11 11 10 13 11 9 5 12 16 11 15 13 9 9 5 7 11 16 19 20 19 18 16 15 14 14 12 6 11 15 15 17 21
21 18 18 17 18 17 15 12 11 8 8 7 10 8 10 12 11 11 12 7 8 13 15 18 18 9 9 11 17 20 21 20 20 18 11 6 6 10 10 8 11 11 15 16
22 21 20 18 20 21 16 13 15 11 8 5 5 7 9 10 8 10 14 13 14 13 14 21 17 15 15 14 17 18 20 20 19 18 16 12 12 9 9 5 5 9 12 12
20 18 18 18 20 20 16 11 16 15 12 8 6 4 3 6 11 11 14 14 11 12 12 15 19 18 13 14 16 17 20 19 20 19 16 16 13 9 14 12 5 6 10 11
18 15 9 10 14 16 23 19 17 17 16 15 14 12 9 7 9 13 15 14 14 14 11 12 17 22 18 14 15 18 21 21 22 23 15 16 17 12 16 13 13 8 9 10
12 8 5 7 9 11 18 21 19 18 20 19 19 20 20 20 21 17 12 14 13 14 10 14 18 22 21 21 23 25 26 21 20 20 18 16 19 16 14 16 16 10 9 12
16 13 13 14 12 8 11 18 21 21 20 21 22 23 27 29 28 24 11 14 14 15 16 19 21 24 26 27 29 30 31 30 22 20 23 16 14 20 19 19 17 13 13 17
24 22 20 19 13 13 7 8 15 23 25 26 28 31 34 34 29 21 16 15 17 17 17 17 18 25 28 27 29 31 37 37 30 25 27 26 23 24 25 24 23 18 19 18
29 26 23 20 19 17 11 11 13 17 17 22 25 25 25 24 21 21 19 17 16 18 19 21 24 22 29 35 33 37 34 38 39 32 29 28 30 30 30 31 30 24 23 20
32 30 28 26 23 20 15 16 18 21 20 23 24 26 26 24 22 23 22 21 20 18 18 21 26 30 33 34 37 37 42 46 45 46 40 39 35 35 36 35 33 28 25 25
35 36 33 28 24 25 20 19 21 23 22 22 23 25 25 23 24 26 27 25 22 21 23 26 26 26 30 31 36 41 49 49 50 55 47 42 43 40 46 43 45 31 31 30
25 24 27 25 25 23 21 19 21 21 22 24 25 23 24 26 28 30 30 27 24 23 23 23 24 28 27 26 27 28 36 44 52 58 55 49 52 54 50 52 29 39 44 32
20 20 21 21 21 21 21 21 20 20 22 25 26 26 25 27 30 32 30 31 30 26 25 25 27 26 26 26 23 24 28 39 46 49 50 57 58 58 56 58 44 33 23 29
20 19 19 19 20 21 21 21 21 22 24 27 27 27 26 25 26 28 29 28 30 30 30 29 29 30 29 25 26 23 24 29 38 44 47 54 57 57 58 55 50 45 39 37
20 20 21 21 21 21 21 21 23 24 26 27 27 29 29 28 27 28 28 30 30 30 30 30 31 29 29 28 29 27 24 28 31 36 39 40 48 50 53 50 50 49 32 27
Wind_Direction
257 247 235 233 238 243 262 271 298 256 129 87 178 172 180 131 115 66 15 352 352 6 31 51 27 36 57 75 80 125 154 170 170 179 174 171 186 194 197 214 182 196 312 35
249 238 222 221 230 237 247 253 279 253 223 288 261 197 178 209 203 84 11 354 333 348 347 38 29 356 17 64 83 89 132 172 180 184 183 179 181 191 200 194 218 244 283 286
240 223 217 222 229 233 244 252 264 246 227 234 272 260 248 241 237 208 317 325 336 327 309 291 357 329 330 292 228 71 94 142 173 193 205 178 174 200 215 227 244 270 277 285
230 223 215 217 220 228 235 246 256 249 267 253 251 256 275 270 244 218 256 303 316 308 300 204 246 350 330 297 209 252 275 264 206 203 202 202 209 220 236 249 259 267 272 273
233 226 216 213 213 221 227 233 245 252 262 280 290 275 241 261 247 256 274 286 295 288 306 252 212 319 314 272 194 178 314 279 261 244 237 236 239 245 254 264 275 284 287 286
229 225 222 214 215 226 231 236 246 252 259 270 285 274 206 241 214 144 118 205 226 257 285 283 201 188 300 292 263 314 7 340 301 270 253 250 250 254 263 277 288 294 298 286
233 224 221 214 217 233 240 236 239 247 258 271 279 270 248 225 208 194 216 267 257 250 254 257 248 191 230 263 265 269 285 336 329 312 288 261 261 268 273 287 296 302 304 291
224 220 214 217 215 208 217 220 237 249 263 271 275 272 289 219 213 282 252 282 291 295 266 257 253 246 209 233 252 264 279 296 330 359 333 315 300 315 317 312 327 324 329 276
211 205 197 197 201 205 211 219 235 246 260 262 264 279 302 211 235 268 278 285 295 294 286 296 286 270 244 215 238 245 279 288 302 311 318 312 354 43 17 352 336 336 323 285
186 184 192 200 203 200 198 214 235 252 259 252 256 248 172 196 225 245 257 278 290 297 288 306 296 271 221 220 222 241 267 281 283 293 310 115 184 2 354 348 5 342 357 296
179 185 183 185 197 206 222 235 245 250 249 244 246 208 199 221 243 240 261 281 287 310 288 315 344 301 235 211 225 246 254 273 286 294 306 315 357 346 17 46 34 40 26 32
174 173 170 184 200 211 216 216 231 246 255 239 240 205 210 234 272 282 285 302 316 318 292 304 334 336 244 258 234 244 256 267 279 291 308 327 329 311 335 41 51 35 25 24
175 181 187 197 207 217 220 228 245 258 275 257 241 203 224 250 266 287 300 302 336 328 311 297 290 312 286 241 249 246 249 264 281 298 319 14 3 298 311 16 49 29 21 20
194 201 213 226 221 227 237 235 246 286 295 256 262 248 235 242 259 277 296 310 325 332 316 304 292 279 275 265 240 248 248 264 279 292 311 327 296 287 312 338 28 27 20 0
210 217 220 226 229 231 233 216 234 273 291 285 294 304 332 213 232 254 271 280 300 299 301 303 299 293 295 270 228 226 245 260 271 290 304 311 300 268 288 289 309 359 4 353
224 239 240 240 246 241 238 235 231 252 259 274 282 297 294 305 293 284 277 264 269 285 281 264 278 275 275 275 263 256 258 267 282 238 298 306 297 265 259 283 293 338 334 324
234 252 271 297 306 250 240 237 243 248 259 269 273 286 296 302 306 307 266 241 245 255 256 252 264 256 259 264 269 271 276 284 267 295 299 285 272 270 263 265 284 308 307 307
260 271 282 285 291 293 264 246 241 246 257 265 274 282 288 294 298 304 280 241 242 254 246 237 247 255 250 253 263 274 280 282 283 293 289 280 272 272 268 263 269 287 289 297
262 271 277 278 270 267 283 269 259 255 257 263 271 277 282 287 293 291 281 263 247 245 250 246 241 236 239 247 251 258 269 279 271 280 279 277 275 267 269 269 263 265 272 287
253 264 273 277 279 282 261 265 270 268 264 267 273 279 282 286 285 278 277 275 270 264 263 258 254 241 235 240 247 254 257 264 263 263 267 269 273 269 266 258 256 259 269 283
256 263 268 275 277 267 255 255 259 271 279 273 280 281 281 280 277 276 275 280 288 287 279 272 266 264 261 264 248 250 262 261 257 255 260 267 268 266 256 247 239 248 249 261
257 264 271 276 276 277 279 276 272 270 271 270 272 272 270 269 265 267 274 280 288 294 295 291 288 280 276 273 268 261 258 251 250 252 252 261 263 264 266 257 236 224 240 242
252 257 261 263 268 274 278 278 279 274 267 267 267 264 263 261 262 264 274 286 293 287 287 291 283 282 285 283 280 272 263 250 247 251 259 262 262 263 272 281 258 221 233 222
255 257 258 263 265 265 266 268 267 262 258 257 259 261 264 264 267 272 280 292 291 285 292 297 297 294 293 293 281 268 261 251 250 258 259 263 259 262 267 274 290 278 249 221
256 257 260 262 263 265 266 265 264 263 260 261 264 271 275 278 280 279 279 284 286 290 296 298 302 304 302 301 290 277 264 256 254 253 258 257 255 260 268 267 270 278 244 259
257 255 253 251 251 253 259 263 263 265 267 271 274 275 279 284 286 285 284 284 284 288 288 292 298 301 304 302 294 287 283 274 271 268 261 254 255 253 258 266 271 274 267 204
Height
5911 5915 5917 5920 5921 5923 5925 5928 5930 5930 5931 5932 5932 5931 5931 5931 5930 5930 5929 5927 5924 5921 5921 5918 5918 5918 5916 5915 5914 5913 5914 5915 5915 5915 5916 5917 5917 5917 5916 5917 5917 5917 5916 5915
5908 5911 5914 5916 5918 5921 5923 5926 5928 5929 5929 5931 5931 5932 5930 5930 5929 5928 5929 5928 5926 5923 5921 5920 5918 5918 5917 5916 5914 5914 5913 5913 5914 5914 5914 5915 5915 5916 5917 5917 5916 5916 5915 5915
5904 5908 5909 5911 5915 5918 5921 5924 5925 5926 5927 5928 5929 5931 5931 5930 5928 5927 5927 5927 5927 5924 5921 5919 5918 5917 5916 5916 5915 5914 5914 5914 5913 5912 5913 5913 5914 5914 5916 5916 5916 5915 5915 5914
5899 5902 5905 5907 5911 5915 5919 5921 5921 5923 5924 5926 5927 5929 5928 5927 5926 5925 5925 5925 5925 5923 5921 5919 5918 5916 5915 5915 5915 5914 5914 5914 5914 5913 5913 5912 5913 5913 5915 5916 5915 5914 5913 5913
5897 5898 5901 5904 5908 5911 5915 5917 5918 5919 5921 5921 5922 5924 5926 5924 5924 5924 5924 5923 5923 5922 5920 5917 5916 5916 5915 5914 5913 5913 5914 5915 5914 5914 5913 5913 5913 5913 5915 5915 5915 5915 5914 5913
5890 5894 5897 5903 5905 5907 5911 5913 5914 5916 5917 5919 5920 5921 5923 5922 5922 5922 5922 5921 5920 5919 5918 5916 5914 5914 5914 5914 5913 5912 5912 5913 5913 5913 5914 5914 5913 5914 5914 5914 5916 5915 5914 5913
5887 5891 5895 5899 5902 5906 5909 5910 5912 5914 5915 5916 5916 5916 5920 5921 5920 5921 5921 5920 5918 5916 5915 5914 5912 5912 5912 5912 5912 5912 5911 5911 5913 5913 5913 5913 5913 5913 5913 5913 5913 5911 5911 5910
5882 5888 5892 5896 5900 5902 5904 5906 5909 5910 5912 5913 5911 5911 5916 5918 5919 5919 5920 5919 5917 5913 5911 5911 5909 5908 5908 5909 5910 5910 5910 5910 5912 5913 5911 5911 5911 5911 5912 5911 5910 5908 5904 5904
5879 5883 5888 5891 5895 5899 5901 5903 5907 5908 5909 5909 5909 5910 5912 5914 5916 5916 5918 5916 5914 5911 5909 5908 5906 5904 5906 5907 5909 5908 5909 5909 5911 5911 5909 5908 5909 5908 5909 5908 5905 5903 5898 5896
5878 5882 5886 5889 5893 5895 5899 5904 5905 5905 5906 5906 5907 5908 5910 5911 5912 5914 5914 5912 5910 5907 5905 5903 5902 5900 5900 5904 5905 5908 5907 5907 5908 5909 5908 5909 5907 5905 5903 5903 5901 5897 5891 5885
5877 5882 5887 5889 5892 5895 5899 5901 5902 5903 5903 5903 5904 5907 5908 5910 5911 5912 5910 5909 5907 5905 5903 5902 5900 5898 5899 5901 5904 5905 5905 5906 5906 5908 5910 5912 5912 5909 5904 5901 5899 5893 5889 5885
5879 5882 5885 5889 5892 5894 5897 5899 5900 5900 5901 5901 5902 5905 5906 5907 5908 5908 5908 5906 5905 5902 5901 5899 5898 5897 5898 5899 5902 5902 5901 5905 5905 5907 5908 5910 5910 5910 5903 5899 5896 5893 5890 5888
5880 5883 5886 5889 5892 5893 5895 5897 5898 5899 5899 5899 5901 5904 5904 5905 5906 5905 5905 5904 5903 5901 5900 5898 5897 5895 5894 5895 5897 5897 5899 5902 5902 5903 5905 5907 5907 5909 5903 5899 5894 5893 5888 5887
5879 5881 5884 5887 5889 5891 5893 5895 5895 5897 5898 5898 5899 5900 5902 5902 5903 5902 5901 5901 5901 5900 5899 5897 5895 5894 5892 5891 5890 5893 5896 5898 5898 5899 5901 5902 5900 5903 5903 5899 5894 5891 5888 5888
5877 5879 5882 5884 5886 5888 5890 5892 5893 5894 5896 5897 5897 5898 5898 5898 5900 5900 5899 5898 5898 5898 5896 5894 5893 5891 5891 5891 5890 5891 5892 5893 5894 5897 5898 5899 5898 5898 5901 5898 5893 5888 5887 5887
5875 5877 5880 5881 5882 5883 5885 5888 5890 5892 5892 5893 5894 5895 5895 5895 5895 5895 5895 5894 5894 5893 5892 5892 5890 5889 5889 5889 5890 5890 5890 5890 5891 5876 5894 5894 5895 5895 5895 5894 5892 5885 5885 5886
5873 5875 5876 5878 5878 5879 5881 5883 5886 5888 5889 5890 5890 5891 5890 5889 5889 5889 5888 5889 5889 5889 5887 5887 5886 5886 5886 5886 5886 5886 5886 5887 5882 5888 5890 5892 5890 5891 5891 5891 5888 5882 5882 5883
5868 5871 5873 5874 5875 5876 5877 5879 5881 5883 5883 5884 5884 5884 5883 5883 5882 5882 5882 5883 5883 5883 5882 5883 5883 5883 5883 5882 5882 5881 5882 5882 5882 5882 5882 5886 5885 5887 5887 5886 5883 5878 5878 5878
5863 5865 5868 5869 5871 5872 5873 5874 5875 5876 5878 5878 5878 5877 5876 5875 5875 5874 5874 5874 5876 5877 5877 5877 5877 5877 5878 5877 5876 5876 5876 5876 5876 5877 5876 5877 5878 5879 5879 5881 5879 5875 5875 5871
5858 5860 5862 5863 5864 5866 5869 5869 5869 5869 5871 5871 5871 5870 5868 5868 5868 5867 5868 5868 5869 5869 5869 5869 5870 5871 5870 5869 5868 5868 5869 5870 5870 5869 5869 5870 5872 5872 5871 5869 5870 5869 5868 5866
5852 5853 5856 5857 5858 5859 5862 5863 5863 5864 5868 5865 5864 5863 5861 5861 5861 5861 5861 5861 5862 5862 5863 5864 5863 5861 5861 5861 5860 5860 5859 5858 5860 5863 5861 5859 5860 5859 5856 5853 5854 5858 5858 5860
5845 5847 5849 5851 5852 5853 5856 5857 5858 5858 5858 5858 5858 5856 5854 5854 5854 5853 5853 5853 5855 5856 5854 5853 5854 5853 5851 5850 5849 5847 5843 5845 5847 5849 5848 5848 5848 5847 5845 5831 5822 5839 5847 5851
5840 5842 5843 5846 5846 5847 5848 5849 5849 5849 5849 5849 5849 5849 5848 5847 5846 5846 5846 5847 5849 5848 5848 5848 5846 5843 5841 5839 5839 5837 5835 5835 5837 5837 5837 5836 5832 5832 5832 5824 5813 5819 5830 5837
5835 5836 5838 5839 5840 5840 5841 5842 5842 5842 5842 5841 5840 5840 5841 5841 5840 5840 5840 5839 5837 5839 5839 5837 5835 5835 5834 5832 5830 5827 5825 5826 5827 5827 5825 5825 5821 5819 5825 5824 5819 5820 5804 5824
5830 5831 5832 5834 5834 5834 5835 5835 5836 5835 5835 5834 5834 5835 5835 5834 5833 5833 5832 5832 5829 5829 5828 5826 5824 5823 5822 5820 5816 5815 5814 5814 5812 5811 5809 5809 5806 5809 5808 5811 5814 5814 5814 5819
5823 5824 5825 5826 5826 5827 5828 5829 5828 5828 5827 5828 5828 5827 5827 5827 5827 5824 5824 5822 5821 5821 5820 5818 5816 5814 5810 5806 5803 5801 5800 5798 5797 5794 5793 5792 5791 5794 5795 5798 5800 5798 5800 5807